Home > Weather > Saint George's > Past weeks

Flag for Grenada Weather for the Past 2 Weeks in Saint George's, Grenada

Now
79 °F

Passing clouds.


Feels Like: 82 °F
Forecast: 73 / 80 °F
Wind: 17 mph from East

Location: Point Salines Airport

Current Time: Feb 9, 2016 at 4:07:04 AM

Latest Report: Feb 9, 2016 at 3:00 AM


Visibility: N/A

Pressure: 29.95 "Hg

Humidity: 84%

Dew point: 73 °F

Location of Saint George'sLocation

Historic Weather in Saint George's — Graph

°F

Saint George's Temperature Yesterday

Maximum temperature yesterday: 84 °F (at 10:00 AM)
Minimum temperature yesterday: 77 °F (at 4:00 AM)
Average temperature yesterday: 81 °F

High & Low Weather Summary for the Past Weeks

 TemperatureHumidityPressure
High86 °F (Jan 26, 1:00 PM)94% (Jan 25, 5:00 AM)30.07 "Hg (Jan 25, 5:00 AM)
Low72 °F (Feb 4, 5:00 AM)62% (Jan 31, 12:00 PM)29.86 "Hg (Feb 3, 3:00 PM)
Average80 °F78%29.96 "Hg
* Reported Jan 25 5:00 AM — Feb 9 3:00 AM, Saint George's, Weather by CustomWeather, © 2016

Note: Actual official high and low records may vary slightly from our data, if they occured in-between our weather recording intervals... More about our weather records

Advertising

Saint George's Weather History for the Previous 24 Hours

 ConditionsComfort  
Time TempWeatherWind HumidityBarometerVisibility
3:00 AM
Tue, Feb 9
79 °FPassing clouds.17 mph84%29.95 "HgN/A
2:00 AM79 °FPassing clouds.18 mph84%29.95 "HgN/A
1:00 AM79 °FPassing clouds.17 mph84%29.98 "HgN/A
12:00 AM79 °FPassing clouds.17 mph84%29.98 "HgN/A
11:00 PM
Mon, Feb 8
79 °FPassing clouds.15 mph84%29.98 "HgN/A
10:00 PM79 °FPassing clouds.18 mph84%29.98 "HgN/A
9:00 PM79 °FPassing clouds.18 mph84%29.95 "HgN/A
8:00 PM79 °FPassing clouds.20 mph84%29.95 "HgN/A
7:00 PM81 °FPassing clouds.21 mph79%29.92 "HgN/A
6:00 PM81 °FScattered clouds.20 mph79%29.92 "HgN/A
5:00 PM82 °FScattered clouds.23 mph74%29.92 "HgN/A
4:00 PM84 °FScattered clouds.21 mph74%29.92 "HgN/A
3:00 PM84 °FScattered clouds.23 mph70%29.92 "HgN/A
2:00 PM84 °FPassing clouds.22 mph70%29.95 "HgN/A
1:00 PM84 °FScattered clouds.20 mph70%29.98 "HgN/A
12:00 PM84 °FPassing clouds.23 mph70%30.01 "HgN/A
11:00 AM84 °FPassing clouds.23 mph70%30.04 "HgN/A
10:00 AM84 °FScattered clouds.25 mph70%30.04 "HgN/A
9:00 AM82 °FPartly sunny.21 mph74%30.04 "HgN/A
8:00 AM79 °FPartly sunny.21 mph84%30.01 "HgN/A
7:00 AM77 °FPassing clouds.13 mph89%29.98 "HgN/A
6:00 AM77 °FPassing clouds.14 mph89%29.98 "HgN/A
5:00 AM77 °FPassing clouds.12 mph89%29.95 "HgN/A
4:00 AM77 °FPassing clouds.14 mph89%29.95 "HgN/A
Weather by CustomWeather, © 2016

See weather overviewHow to use our weather pages